AirNav   Air Wisconsin pilot careers
 
 306 users online  

T00 Chambers County Airport
Anahuac, Texas, USA

GOING TO ANAHUAC?


FAA INFORMATION EFFECTIVE 03 JANUARY 2019

Location

FAA Identifier: T00
Lat/Long: 29-46-11.3332N / 094-39-48.5535W
29-46.188887N / 094-39.809225W
29.7698148 / -94.6634871
(estimated)
Elevation: 21.2 ft. / 6.5 m (surveyed)
Variation: 05E (1995)
From city: 1 mile E of ANAHUAC, TX
Time zone: UTC -6 (UTC -5 during Daylight Saving Time)
Zip code: 77514

Airport Operations

Airport use: Open to the public
Activation date: 10/1978
Control tower: no
ARTCC: HOUSTON CENTER
FSS: MONTGOMERY COUNTY FLIGHT SERVICE STATION
NOTAMs facility: CXO (NOTAM-D service available)
Attendance: MON-FRI 0800-1700
Wind indicator: lighted
Segmented circle: yes
Lights: DUSK-DAWN. MIRL RY 12/30 PRESET LOW INTST; TO INCR INTST ACTVT - CTAF.
Beacon: white-green (lighted land airport)
Operates sunset to sunrise.

Airport Communications

CTAF: 122.9
HOUSTON APPROACH: 134.45 [0600-0000]
HOUSTON DEPARTURE: 134.45 [0600-0000]
BORRN DP: 134.45
DREMR DP: 134.45
INDIE DP: 134.45
KARRR DP: 134.45
LURIC DP: 134.45
MMALT DP: 134.45
STRYA DP: 134.45
STYCK DP: 134.45
WATFO DP: 134.45
WYLSN DP: 134.45

Nearby radio navigation aids

VOR radial/distance  VOR name  Freq  Var
MHFr011/14.1TRINITY VOR/DME113.6007E
DASr177/25.2DAISETTA VORTAC116.9005E
VUHr014/31.9SCHOLES VOR/DME113.0006E
HUBr073/32.7HOBBY VOR/DME117.1005E
SBIr272/33.0SABINE PASS VOR/DME115.4007E
BPTr246/35.3BEAUMONT VOR/DME114.5007E
IAHr103/37.2HUMBLE VORTAC116.6005E

 
NDB name  Hdg/Dist  Freq  Var  ID
GALVESTON002/26.620608EGLS --. .-.. ...
GOODHUE226/29.636807EGDE --. -.. .
NIXIN110/31.732605EBVP -... ...- .--.
HARDIN COUNTY208/39.952404EHRD .... .-. -..

Airport Services

Fuel available: 100LL JET-A
Parking: tiedowns
Bottled oxygen: NONE
Bulk oxygen: NONE

Runway Information

Runway 12/30

Dimensions: 3005 x 60 ft. / 916 x 18 m
Surface: asphalt, in fair condition
Weight bearing capacity: 
Single wheel: 13.0
Runway edge lights: medium intensity
Runway edge markings: MARKINGS FADED.
RUNWAY 12  RUNWAY 30
Latitude: 29-46.363987N29-46.053815N
Longitude: 094-39.966058W094-39.522763W
Elevation: 20.4 ft.20.4 ft.
Traffic pattern: leftright
Runway heading: 124 magnetic, 129 true304 magnetic, 309 true
Markings: nonprecision, in poor conditionnonprecision, in poor condition
Visual slope indicator: 2-light PAPI on left (4.00 degrees glide path)
Touchdown point: yes, no lightsyes, no lights
Obstructions: 30 ft. pole, 875 ft. from runway, 171 ft. left of centerline, 22:1 slope to clear15 ft. road, 530 ft. from runway, 280 ft. left of centerline, 22:1 slope to clear

Runway 17/35

Dimensions: 1900 x 300 ft. / 579 x 91 m
Surface: turf, in good condition
RUNWAY 17  RUNWAY 35
Latitude: 29-46.313965N29-46.000500N
Longitude: 094-39.911733W094-39.911733W
Elevation: 20.0 ft.20.0 ft.
Gradient: 0.1%0.1%
Traffic pattern: leftright
Runway heading: 175 magnetic, 180 true355 magnetic, 000 true
Markings: none, in good conditionnone, in good condition
Touchdown point: yes, no lightsyes, no lights
Obstructions: 56 ft. trees, 852 ft. from runway, 119 ft. left of centerline, 15:1 slope to clear15 ft. road, 230 ft. from runway, 15:1 slope to clear

Airport Ownership and Management from official FAA records

Ownership: Publicly-owned
Owner: CHAMBERS COUNTY
PO BOX 938
ANAHUAC, TX 77514
Phone 409-267-2719
Manager: KELLY TRAHAN
PO BOX 938
ANAHUAC, TX 77514
Phone 409-267-2719

Airport Operational Statistics

Aircraft based on the field: 7
Single engine airplanes: 5
Multi engine airplanes: 1
Ultralights: 1
    
Aircraft operations: avg 46/week *
67% local general aviation
33% transient general aviation
* for 12-month period ending 28 March 2017

Additional Remarks

RWY 17/35 SOFT WHEN WET.
RWY 17/35 USE EXTREME CARE; PAPI RY 12 LOCATED NORTH LIMITS OF TURF RWY.
FOR CD CTC HOUSTON APCH AT 281-443-5844 TO CNL IFR CALL 281-443-5888.
TAXIWAY BRAVO HAS A POT HOLE AND BROKEN ASPHALT.

Instrument Procedures

NOTE: All procedures below are presented as PDF files. If you need a reader for these files, you should download the free Adobe Reader.

NOT FOR NAVIGATION. Please procure official charts for flight.
FAA instrument procedures published for use from 3 January 2019 at 0901Z to 31 January 2019 at 0900Z.

 
STARs - Standard Terminal Arrivals
BLUBELL THREE   download (295KB)
CESAN FOUR (RNAV)   2 pages: [1] [2] (359KB)
HUDZY THREE   2 pages: [1] [2] (328KB)
OHIIO FOUR   download (296KB)
TCHDN TWO   2 pages: [1] [2] (357KB)
TKNIQ TWO (RNAV)   2 pages: [1] [2] (285KB)
WAPPL FOUR (RNAV)   2 pages: [1] [2] (379KB)
WAPPL FOUR (RNAV), CONT.2   download (264KB)
 
IAPs - Instrument Approach Procedures
RNAV (GPS) RWY 12   download (165KB)
 
Departure Procedures
BLTWY FIVE (RNAV)   download (129KB)
BORRN THREE (RNAV)   2 pages: [1] [2] (258KB)
HOODO FIVE (RNAV)   2 pages: [1] [2] (214KB)
INDIE SIX (RNAV)   download (156KB)
KARRR FOUR (RNAV)   2 pages: [1] [2] (208KB)
LURIC SIX (RNAV)   download (175KB)
MMALT FOUR (RNAV)   download (190KB)
STRYA SIX (RNAV)   download (164KB)
STYCK SIX (RNAV)   download (152KB)
WATFO FOUR (RNAV)   download (136KB)
WYLSN SIX (RNAV)   download (140KB)
NOTE: Special Take-Off Minimums/Departure Procedures apply   download (70KB)

Other nearby airports with instrument procedures:

54T - RWJ Airpark (10 nm W)
KHPY - Baytown Airport (15 nm W)
T78 - Liberty Municipal Airport (19 nm N)
T41 - La Porte Municipal Airport (22 nm W)
KEFD - Ellington Airport (28 nm W)
 
Loc | Ops | Rwys | IFR | FBO | Links
Com | Nav | Svcs | Stats | Notes
Area around T00 (Chambers County Airport)
 
Road maps at: MapQuest Bing Google
 
Aerial photo
WARNING: Photo may not be current or correct
Aerial photo of T00 (Chambers County Airport)
Photo taken 04-Mar-2007
on final for runway 30

Do you have a better or more recent aerial photo of Chambers County Airport that you would like to share? If so, please send us your photo.

 
Sectional chart

 
Airport distance calculator
Flying to Chambers County Airport? Find the distance to fly.

From to T00

Sunrise and sunset
Times for 23-Jan-2019
 Local
(UTC-6)
 Zulu
(UTC)
Morning civil twilight06:4812:48
Sunrise07:1413:14
Sunset17:4723:47
Evening civil twilight18:1300:13

Current date and time
Zulu (UTC)  23-Jan-2019 08:35:20
Local (UTC-6)  23-Jan-2019 02:35:20
 
METAR
KEFD 
28nm W 
230750Z 33015G25KT 6SM RA BR SCT010 SCT016 OVC038 09/08 A3000
KBMT 
29nm NE 
230815Z AUTO 31025G41KT 4SM +RA SCT014 BKN038 OVC090 13/10 A2998 RMK AO2 T01300096
KGLS 
32nm S 
230814Z AUTO 34025G34KT 10SM RA BKN008 BKN040 OVC049 12/12 A2996 RMK AO2 PK WND 34034/0805 WSHFT 0759 RAB09 PRESRR P0001 T01220117
KHOU 
33nm W 
230753Z 33017G24KT 8SM -RA SCT009 SCT016 OVC038 10/08 A2998 RMK AO2 SLP157 P0017 T01000078
KLVJ 
34nm SW 
230753Z AUTO 35012G23KT 5SM RA BR FEW011 OVC031 10/09 A2999 RMK AO2 PK WND 31034/0707 WSHFT 0702 RAB04 SLP156 P0025 T01000094
KBPT 
35nm E 
230753Z AUTO 18009KT 9SM FEW044 SCT065 OVC100 19/17 A2990 RMK AO2 RAB35E45 SLP125 P0000 T01940172
KXIH 
36nm S 
230815Z AUTO 21010KT 6SM HZ SCT026 BKN065 OVC095 A2990 RMK A01
KIAH 
39nm W 
230805Z 35009KT 6SM RA BR BKN009 OVC045 09/09 A2998 RMK AO2 P0002 T00940089
K6R3 
39nm NW 
230815Z AUTO 35013G20KT 7SM -RA BKN009 BKN013 OVC050 08/08 A3001 RMK AO2 P0002 T00760075
KAXH 
45nm W 
230815Z AUTO 35011G18KT 10SM -RA SCT012 BKN034 OVC055 09/08 A2998 RMK AO2 P0001 T00870080
TAF
KEFD 
28nm W 
230620Z 2306/2410 14006KT 9000 -SHRA BKN030 WS020/19035KT QNH2989INS TEMPO 2306/2312 34025G35KT 4800 -TSRAGR BKN010CB BECMG 2311/2312 34015G25KT 9000 SHRA BKN010 QNH2997INS BECMG 2318/2319 33015G25KT 9999 NSW FEW100 510053 QNH3007INS BECMG 2400/2401 32009KT 9999 SKC QNH3011INS TX20/2306Z TN04/2404Z
KGLS 
32nm S 
230655Z 2307/2406 33016G27KT 5SM -SHRA BR BKN028 OVC040 TEMPO 2307/2309 32020G40KT 2SM +SHRA BR BKN012 OVC025 FM231100 33023G33KT 6SM -RA BR OVC025 FM231500 34022G32KT P6SM -RA OVC040 FM231700 33022G30KT P6SM BKN090 FM232200 34015G26KT P6SM SCT250 FM240400 34012KT P6SM SCT250
KHOU 
33nm W 
230828Z 2308/2406 33017G24KT 6SM -RA BR SCT008 OVC040 FM230900 34014G25KT 6SM -RA BR SCT015 OVC040 FM231300 34018G26KT P6SM -RA OVC050 FM231600 33017G28KT P6SM BKN090 FM231900 34014G23KT P6SM SKC FM232300 34008KT P6SM SKC
KBPT 
35nm E 
230530Z 2306/2406 15010KT P6SM VCSH BKN040 OVC070 TEMPO 2306/2309 4SM -SHRA FM230900 19018G25KT 4SM -SHRA OVC040 FM231100 32018G25KT P6SM -RA OVC015 FM231800 32017G24KT P6SM OVC015 FM232100 32016G22KT P6SM SKC FM240000 32007KT P6SM SKC
NOTAMs
Click for the latest NOTAMs
NOTAMs are issued by the DoD/FAA and will open in a separate window not controlled by AirNav.

 

 
 

FBO, Fuel Providers, and Aircraft Ground Support

  
 Business Name 
 
 Contact 
 
 Services / Description 
 
Fuel Prices
 
Comments
  
Chambers County Anahuac Airport 409-267-2719
no information available

If you are affiliated with Chambers County Anahuac Airport and would like to show here your services, contact info, web link, logo, and more, click here
100LL Jet A
SS $4.00 $3.40 
 Updated 16-Jan-2019
 
   3 read write
SS=Self service
Update Fuel Prices
 

Would you like to see your business listed on this page?

 If your business provides an interesting product or service to pilots, flight crews, aircraft, or users of the Chambers County Airport, you should consider listing it here.  To start the listing process, click on the button below
 
Add a business
 

Other Pages about Chambers County Airport

www.co.chambers.tx.us/...
 
Update a link
 
Copyright © AirNav, LLC. All rights reserved. Privacy Policy  Contact